Tracking 19177 objects as of 25-May-2018
HD Live streaming from Space Station
objects crossing your sky now

NOAA 16 DEB

Track NOAA 16 DEB now!
10-day predictions


NORAD ID: 42360
Int'l Code: 2000-055RC
Perigee: 765.1 km
Apogee: 895.4 km
Inclination: 98.9 °
Period: 101.4 minutes
Semi major axis: 7201 km
RCS: Unknown
Launch date: September 21, 2000
Source: United States (US)
Launch site: AIR FORCE WESTERN TEST RANGE (AFWTR)

Note: This is SATELLITE DEBRIS
aabbcc
Your satellite tracking list
Your tracking list is empty




NASA's NSSDC Master Catalog

Two Line Element Set (TLE):
1 42360U 00055RC  18144.48204345 +.00001195 +00000-0 +55200-3 0  9994
2 42360 098.8841 229.7008 0090457 087.9411 273.2121 14.20674367120379
Source of the keplerian elements: AFSPC